Flag for French Polynesia Weather past 2 weeks in Papeete, Tahiti, French Polynesia

Now
79 °F

Scattered showers. Passing clouds.


Feels Like: 82 °F
Forecast: 74 / 85 °F
Wind: 6 mph from Southwest

Location: Tahiti-Faaa

Current Time: Oct 22, 2014 at 8:56:20 PM

Latest Report: Oct 22, 2014 at 8:30 PM


Visibility: N/A

Pressure: 29.89 "Hg

Humidity: 79%

Dew point: 72 °F

Location of PapeeteLocation

Historic Weather in Papeete — Graph

°F

Papeete temperature yesterday

Maximum temperature yesterday: 81 °F (at 11:30 AM)
Minimum temperature yesterday: 73 °F (at 4:30 AM)
Average temperature yesterday: 77 °F

Past Weeks' High & Low Weather Summary

 TemperatureHumidityPressure
High86 °F (Oct 12, 2:30 PM)94% (Oct 15, 11:30 PM)30.01 "Hg (Oct 15, 11:30 PM)
Low70 °F (Oct 11, 1:30 AM)51% (Oct 11, 9:30 AM)29.80 "Hg (Oct 21, 3:00 PM)
Average79 °F74%29.90 "Hg
* Reported Oct 7 8:00 PM — Oct 22 8:00 PM, Papeete, Weather by CustomWeather, © 2014

Note: Actual official high and low records may vary slightly from our data, if they occured in-between our weather recording intervals... More about our weather records

Advertising

Papeete weather history for previous 24 hours

 ConditionsComfort  
Time TempWeatherWind HumidityBarometerVisibility
8:00 PM
Oct 22
77 °FScattered showers. Passing clouds.2 mph89%29.89 "HgN/A
7:30 PM77 °FScattered showers. Passing clouds.7 mph83%29.86 "HgN/A
7:00 PM77 °FScattered showers. Passing clouds.20 mph89%29.86 "HgN/A
6:30 PM77 °FScattered showers. Passing clouds.17 mph89%29.86 "HgN/A
6:00 PM79 °FScattered showers. Passing clouds.14 mph84%29.86 "HgN/A
5:30 PM79 °FScattered showers. Scattered clouds.12 mph84%29.86 "HgN/A
5:00 PM81 °FScattered clouds.9 mph74%29.83 "HgN/A
4:30 PM81 °FBroken clouds.1 mph79%29.83 "HgN/A
4:00 PM81 °FBroken clouds.5 mph84%29.83 "HgN/A
3:30 PM79 °FScattered showers. Broken clouds.5 mph84%29.83 "HgN/A
3:00 PM81 °FLight rain. Broken clouds.1 mph74%29.83 "HgN/A
2:30 PM81 °FLight rain. Broken clouds.6 mph79%29.83 "HgN/A
2:00 PM81 °FLight rain. Broken clouds.6 mph79%29.83 "HgN/A
1:30 PM81 °FLight rain. Broken clouds.9 mph84%29.86 "HgN/A
1:00 PM82 °FScattered showers. Broken clouds.10 mph74%29.83 "HgN/A
12:30 PM84 °FScattered showers. Broken clouds.12 mph70%29.86 "HgN/A
12:00 PM86 °FPartly sunny.10 mph70%29.86 "HgN/A
11:30 AM86 °FPartly sunny.12 mph70%29.89 "HgN/A
11:00 AM86 °FScattered clouds.9 mph70%29.89 "HgN/A
10:30 AM84 °FPartly sunny.8 mph70%29.89 "HgN/A
10:00 AM84 °FBroken clouds.5 mph70%29.92 "HgN/A
9:30 AM81 °FPartly sunny.2 mph74%29.92 "HgN/A
9:00 AM81 °FPartly sunny.3 mph74%29.92 "HgN/A
8:30 AM81 °FBroken clouds.2 mph74%29.92 "HgN/A
8:00 AM81 °FPartly sunny.3 mph74%29.92 "HgN/A
7:30 AM79 °FBroken clouds.No wind79%29.89 "HgN/A
7:00 AM79 °FPartly sunny.2 mph79%29.89 "HgN/A
6:30 AM77 °FPartly sunny.2 mph89%29.89 "HgN/A
6:00 AM75 °FPartly sunny.3 mph94%29.86 "HgN/A
5:30 AM75 °FOvercast.3 mph94%29.86 "HgN/A
5:00 AM75 °FOvercast.3 mph89%29.86 "HgN/A
4:30 AM75 °FMostly cloudy.No wind89%29.83 "HgN/A
4:00 AM75 °FPartly cloudy.2 mph89%29.83 "HgN/A
3:30 AM75 °FLight rain. Mostly cloudy.6 mph89%29.83 "Hg6 mi
3:00 AM75 °FScattered showers. Partly cloudy.9 mph89%29.83 "HgN/A
2:30 AM75 °FPartly cloudy.5 mph83%29.83 "HgN/A
2:00 AM75 °FPassing clouds.8 mph83%29.83 "HgN/A
1:30 AM75 °FPassing clouds.3 mph89%29.83 "HgN/A
1:00 AM75 °FPartly cloudy.7 mph89%29.86 "HgN/A
12:30 AM75 °FPartly cloudy.6 mph89%29.86 "HgN/A
12:00 AM75 °FPartly cloudy.7 mph89%29.86 "HgN/A
11:30 PM
Oct 21
75 °FRain. Partly cloudy.7 mph89%29.89 "HgN/A
11:00 PM75 °FPartly cloudy.2 mph89%29.89 "HgN/A
10:30 PM75 °FPartly cloudy.3 mph94%29.89 "HgN/A
10:00 PM75 °FLight rain. Partly cloudy.5 mph94%29.89 "HgN/A
9:30 PM75 °FPartly cloudy.2 mph94%29.89 "HgN/A
9:00 PM75 °FMostly cloudy.5 mph94%29.89 "HgN/A
8:30 PM75 °FOvercast.7 mph94%29.89 "HgN/A
8:00 PM75 °FPartly cloudy.7 mph94%29.89 "HgN/A
Weather by CustomWeather, © 2014

See weather overviewHow to use our weather pages